Lapse_Rate
5.1 4.9 5.0 4.5 4.0 4.7 5.7 6.0 6.2 6.8 7.2 7.1 7.0 6.9 6.7 6.5 6.4 6.2 6.1 6.1 6.0 6.2 6.2 6.2 6.3 6.3 5.9 5.8 5.9 5.9 5.9 5.9
5.3 4.8 4.2 4.6 5.0 5.1 5.5 6.0 6.4 7.3 7.3 7.2 7.1 7.0 6.7 6.4 6.2 6.1 5.9 5.9 5.9 6.2 6.2 6.4 6.2 6.4 6.3 6.2 5.9 5.6 5.5 5.7
5.0 4.7 5.1 5.5 4.8 5.2 5.9 6.6 7.2 7.5 7.3 7.1 7.0 6.8 6.5 6.3 6.1 6.2 6.3 6.0 5.7 5.8 6.0 6.1 6.1 6.4 6.5 6.5 6.2 5.8 5.8 5.9
5.0 5.4 5.2 5.1 5.4 6.6 7.0 7.1 7.0 7.0 6.7 6.5 6.2 6.2 6.2 6.2 6.1 6.2 6.0 5.6 5.2 5.7 5.8 5.9 6.1 6.3 6.4 6.4 6.6 6.5 6.6 6.6
5.3 5.7 5.9 6.4 6.4 6.5 6.7 6.6 6.5 6.6 6.5 6.4 6.4 6.3 6.3 6.0 6.1 6.0 5.9 5.6 5.6 5.5 5.6 6.0 6.0 6.3 6.4 6.7 6.8 7.1 7.0 6.7
5.4 6.2 6.5 6.5 6.4 6.3 6.3 6.3 6.2 6.4 6.5 6.5 6.4 6.1 6.0 6.1 6.0 6.0 5.8 5.7 5.7 5.7 5.6 5.8 6.1 6.0 5.9 5.9 6.2 6.6 6.6 6.7
7.5 7.1 6.9 6.6 6.6 6.6 6.5 6.5 6.6 6.6 6.5 6.4 6.3 6.4 6.4 5.9 5.8 5.8 5.7 5.7 5.6 5.6 5.6 5.5 5.5 5.6 5.7 5.7 5.9 6.0 6.2 6.2
6.6 7.1 6.8 6.4 6.4 6.5 6.5 6.6 6.6 6.6 6.5 6.5 6.4 6.1 6.0 5.9 5.8 5.8 5.7 5.5 5.4 5.3 5.3 5.6 5.8 6.0 6.0 6.0 6.2 6.5 6.5 6.7
6.7 6.6 6.7 6.7 6.7 6.6 6.6 6.6 6.6 6.7 6.8 6.5 6.4 6.2 6.0 5.9 5.8 5.8 5.7 5.7 5.8 5.9 6.0 6.1 6.2 6.3 6.4 6.6 6.6 6.8 6.8 6.9
6.7 6.7 6.6 6.6 6.8 7.0 6.9 6.8 6.6 6.5 6.5 6.3 6.1 6.1 5.9 5.8 6.0 6.1 6.1 6.1 6.2 6.3 6.3 6.4 6.5 6.8 7.0 6.8 6.8 6.8 6.7 6.7
7.0 6.9 6.9 7.0 7.1 6.9 6.9 6.8 6.8 6.8 6.5 6.3 6.4 6.3 6.1 6.3 6.3 6.3 6.6 6.5 6.4 6.5 6.7 6.8 7.0 7.1 7.2 7.1 6.9 6.7 6.7 6.9
6.9 6.9 7.0 7.2 7.2 6.9 6.8 6.8 6.7 6.7 6.6 6.4 6.6 6.4 6.4 6.4 6.5 6.6 6.6 6.5 6.5 6.7 6.9 7.0 7.3 7.3 7.1 6.9 6.8 6.8 6.8 7.0
7.2 7.3 7.2 7.2 7.1 6.9 6.8 6.7 6.7 6.7 6.4 6.3 6.4 6.5 6.7 6.6 6.5 6.5 6.6 6.4 6.5 6.7 6.9 7.1 7.0 7.0 6.9 6.9 6.8 6.9 7.0 6.9
7.3 7.3 7.3 7.1 6.8 6.7 6.8 6.7 6.8 6.7 6.5 6.5 6.7 6.7 6.5 6.5 6.7 6.7 6.5 6.5 6.4 6.5 6.6 6.5 6.6 6.7 6.8 6.8 6.8 7.0 7.1 7.0
7.6 7.3 7.1 6.9 6.6 6.7 7.0 7.1 7.0 6.8 6.7 6.6 6.5 6.4 6.4 6.5 6.5 6.4 6.1 6.1 6.2 6.4 6.4 6.4 6.5 6.6 6.6 6.5 6.6 6.7 6.7 6.8
7.5 7.2 7.0 6.8 6.7 6.9 7.0 7.1 6.9 6.7 6.6 6.4 6.2 6.2 6.2 6.2 6.2 6.3 6.4 6.2 6.5 6.6 6.8 6.6 6.7 6.4 6.3 6.2 6.2 6.1 6.0 6.3
6.9 6.9 7.1 6.9 6.9 7.1 7.0 6.9 6.7 6.6 6.4 6.1 5.9 5.9 6.2 6.2 6.1 6.0 5.8 5.9 6.0 6.1 6.5 6.3 6.5 6.1 6.0 5.9 5.9 6.0 5.9 5.9
7.1 7.1 7.2 7.1 7.1 7.0 7.0 6.8 6.6 6.4 6.3 6.1 6.1 6.1 6.0 5.9 5.8 5.8 5.9 5.8 5.8 6.1 6.2 6.2 6.0 5.8 5.6 5.5 5.5 5.7 5.8 5.5
7.4 7.2 7.3 7.3 7.1 7.0 6.8 6.6 6.5 6.2 6.1 6.0 6.0 6.0 5.8 5.9 6.0 6.2 5.9 5.9 5.7 5.7 5.9 5.6 5.7 5.6 5.4 5.3 5.3 5.3 5.2 5.2
7.4 7.5 7.4 7.1 7.0 6.8 6.5 6.3 6.1 5.8 5.8 5.7 5.5 5.9 5.9 6.1 5.9 6.1 6.1 6.0 5.6 5.4 5.5 5.6 5.5 5.1 5.0 5.2 5.3 5.1 5.0 4.6
Wind_Speed
20 25 26 23 22 22 22 22 22 22 22 22 23 21 20 20 17 15 13 13 13 14 14 13 14 20 22 25 21 18 16 11
18 20 16 15 11 16 18 20 23 23 23 23 23 21 20 18 16 14 11 9 9 13 12 13 13 12 17 21 23 14 13 10
13 10 11 11 11 14 18 20 23 21 19 20 19 16 16 14 11 11 10 7 7 11 10 10 15 13 13 16 17 13 8 7
13 18 16 13 14 15 13 13 16 16 16 15 13 12 9 8 9 7 5 3 5 6 11 13 16 15 13 14 12 9 10 4
5 7 12 12 12 12 11 11 13 12 14 13 10 7 6 5 7 6 4 5 8 14 19 15 14 13 12 11 11 14 14 14
9 8 12 10 10 9 10 10 12 7 5 8 11 8 10 5 7 12 15 14 15 14 12 12 14 14 14 15 16 16 14 14
12 10 10 9 8 10 10 8 11 14 15 17 17 12 9 12 13 16 14 13 11 10 12 12 14 15 16 16 14 14 17 18
11 10 9 10 6 9 8 12 15 14 14 15 13 15 12 11 11 11 11 12 12 15 14 12 13 13 12 14 14 16 17 20
10 8 12 9 8 10 12 13 12 11 12 13 15 15 14 12 9 8 9 11 15 16 14 15 10 10 9 13 14 14 17 21
9 9 9 9 10 12 11 13 12 12 12 12 13 16 17 13 9 8 9 14 15 12 6 3 4 4 4 5 8 11 11 15
9 11 10 10 10 11 11 12 10 10 11 12 13 14 14 15 11 12 16 14 12 6 5 3 3 4 3 4 4 4 6 9
11 9 10 10 9 8 7 6 5 8 8 11 13 15 15 14 13 13 14 9 5 5 4 4 3 1 2 3 3 2 4 7
13 12 10 10 6 5 3 3 2 2 8 10 11 15 15 18 13 11 10 5 5 4 2 3 3 2 2 3 2 0 5 3
12 13 12 9 7 3 4 4 2 3 7 9 12 16 19 15 12 8 10 4 5 3 3 1 0 0 2 1 2 4 3 3
14 13 13 9 7 4 4 4 5 2 2 3 7 16 14 15 12 10 9 7 3 2 3 3 2 2 2 3 1 3 2 2
12 11 11 9 8 5 10 7 6 3 4 3 7 15 13 11 11 12 11 8 5 2 3 2 3 3 1 1 1 3 2 4
11 10 8 9 10 7 8 6 4 3 3 7 5 6 16 17 18 15 11 8 5 4 3 2 2 2 2 1 2 0 2 3
10 10 10 8 9 8 10 10 8 7 5 5 4 4 6 10 11 11 11 8 4 4 4 2 2 2 2 3 3 3 3 3
10 12 10 8 8 8 9 10 9 13 9 5 6 4 2 4 11 8 1 8 7 5 4 3 1 1 1 2 2 3 2 3
11 11 7 7 7 7 7 9 6 4 4 5 4 4 5 7 4 8 8 7 4 3 2 3 4 4 3 1 2 4 3 3
Wind_Direction
100 101 108 127 131 131 136 135 134 135 134 132 132 130 124 123 123 116 111 107 100 89 73 51 48 55 52 73 76 88 81 70
46 66 91 104 146 148 144 146 140 145 144 141 135 132 130 129 128 125 117 111 101 84 74 64 74 78 65 64 72 92 71 69
114 121 149 162 155 160 160 156 148 145 141 139 137 138 137 136 136 133 127 121 107 97 94 86 81 83 66 65 68 78 89 78
172 170 176 170 168 170 169 156 150 146 140 139 141 136 138 149 127 95 98 94 66 69 59 68 76 73 65 69 57 52 59 53
172 174 177 174 170 172 167 153 143 147 145 154 148 147 153 119 120 131 112 77 74 97 91 80 75 70 63 54 37 42 44 37
175 191 196 191 163 165 171 151 148 115 125 142 141 132 137 128 138 96 99 101 92 89 82 80 76 74 63 51 46 49 33 26
184 194 204 181 166 170 168 143 122 127 118 119 128 119 118 113 106 103 105 106 101 95 83 69 57 52 50 47 57 37 27 28
192 199 181 162 159 159 124 119 137 120 115 113 117 122 123 115 113 116 109 103 92 82 75 65 55 51 42 47 38 30 31 21
198 179 154 146 131 117 121 129 129 118 119 121 123 129 128 130 116 103 106 92 86 79 66 61 49 39 42 39 25 27 34 40
170 163 145 135 125 122 127 139 127 127 127 132 139 131 139 132 113 89 92 89 82 67 61 68 54 44 26 28 29 28 45 42
150 144 142 125 119 128 130 131 132 134 138 142 142 137 137 121 111 95 98 81 70 76 54 76 52 25 3 36 4 31 47 41
146 147 133 136 134 125 119 118 127 131 142 159 152 141 132 113 95 96 98 87 72 72 84 50 73 44 35 10 267 49 84 49
157 148 152 148 148 138 108 152 153 119 177 166 148 139 121 105 109 115 97 81 87 69 77 60 43 19 59 318 315 183 67 81
164 164 164 163 157 151 152 152 163 151 175 166 140 126 129 132 138 123 121 115 98 80 79 83 208 195 160 153 350 324 321 7
176 174 169 166 164 152 97 89 75 86 142 130 151 146 147 152 151 124 100 93 99 97 134 149 215 270 200 148 337 248 311 315
175 170 172 180 176 158 159 164 161 180 170 150 153 159 156 132 120 121 115 113 101 114 132 166 146 248 318 274 168 162 222 314
166 170 176 190 191 169 168 160 160 147 145 156 160 115 132 133 131 132 126 122 129 108 68 355 166 142 182 287 294 246 180 224
172 176 196 195 190 175 174 176 162 155 161 165 138 130 110 119 122 119 123 108 92 72 62 113 140 193 192 207 204 197 229 227
185 190 196 198 183 179 175 169 163 170 167 145 143 124 105 152 135 111 81 96 82 54 36 25 6 149 321 275 245 239 206 217
186 195 182 167 158 157 137 143 147 123 135 143 135 151 145 127 111 130 140 119 97 65 74 94 100 88 63 12 289 279 252 207